Location: Brno
(49.2000°N, 16.6330°E)
Time: 02:54:42
(UTC+02:00)

X-37B - Visible Passes

Search period start: 14 June 2021 00:00
Search period end: 24 June 2021 00:00
Orbit: 386 x 389 km, 45.0° (Epoch: 10 June)

Date Brightness Start Highest point End Pass type
(mag) Time Alt. Az. Time Alt. Az. Time Alt. Az.
14 Jun 1.7 03:28:09 15° SW 03:30:08 28° SSE 03:32:54 10° ESE visible
15 Jun 2.1 02:32:04 21° SSE 02:32:04 21° SSE 02:34:26 10° ESE visible
16 Jun 1.3 03:08:14 20° SW 03:09:53 34° S 03:12:48 10° ESE visible
17 Jun 1.8 02:12:08 26° SSE 02:12:08 26° SSE 02:14:26 10° ESE visible
17 Jun 1.2 03:44:57 10° WSW 03:47:56 38° S 03:50:55 10° ESE visible
18 Jun 1.1 02:48:20 25° SW 02:49:40 38° S 02:52:39 10° ESE visible
19 Jun 1.8 01:52:22 27° SE 01:52:22 27° SE 01:54:20 10° ESE visible
19 Jun 1.3 03:24:47 10° WSW 03:27:43 34° S 03:30:38 10° ESE visible
20 Jun 1.1 02:28:47 33° SW 02:29:28 38° S 02:32:26 10° ESE visible
21 Jun 2.6 01:33:13 17° ESE 01:33:13 17° ESE 01:34:11 10° ESE visible
21 Jun 1.5 03:05:32 16° WSW 03:07:29 28° SSW 03:10:15 10° SE visible
22 Jun 2.1 02:10:41 22° SE 02:10:41 22° SE 02:12:10 10° ESE visible
22 Jun 2.3 03:43:23 10° WSW 03:45:21 15° SSW 03:47:18 10° SSE visible
22 Jun 2.7 21:58:33 10° SSE 21:58:45 10° SSE 21:58:53 10° SE visible
23 Jun 3.1 02:49:38 10° SSE 02:49:38 10° SSE 02:49:41 10° SSE visible
23 Jun 1.9 22:34:01 10° SSW 22:36:32 21° SSE 22:37:46 17° SE visible
